QPF
0.01 0.01 0.02 0.01 0.01 0.01 0.01 0.02 0.02 0.02 0.03 0.02 0.02 0.02 0.02 0.02 0.02 0.02 0.02 0.03 0.02 0.03 0.02 0.02 0.03 0.03 0.03 0.04 0.05 0.05 0.05 0.05 0.04 0.04 0.04 0.03 0.02 0.02 0.03 0.04 0.05 0.04 0.05
0.01 0.01 0.01 0.02 0.01 0.00 0.00 0.01 0.01 0.01 0.01 0.02 0.02 0.03 0.03 0.03 0.02 0.03 0.03 0.03 0.03 0.03 0.03 0.04 0.06 0.06 0.05 0.07 0.07 0.05 0.04 0.05 0.05 0.05 0.04 0.03 0.04 0.04 0.02 0.03 0.03 0.03 0.04
0.00 0.00 0.00 0.01 0.01 0.00 0.00 0.00 0.01 0.01 0.00 0.01 0.02 0.02 0.02 0.02 0.02 0.02 0.03 0.03 0.03 0.03 0.03 0.05 0.08 0.08 0.06 0.05 0.05 0.05 0.05 0.06 0.04 0.03 0.04 0.04 0.06 0.05 0.04 0.03 0.03 0.03 0.03
0.01 0.01 0.00 0.00 0.00 0.00 0.00 0.00 0.00 0.00 0.01 0.01 0.01 0.01 0.01 0.01 0.02 0.02 0.02 0.02 0.02 0.02 0.02 0.03 0.03 0.04 0.04 0.04 0.06 0.06 0.06 0.06 0.04 0.03 0.04 0.05 0.05 0.06 0.06 0.05 0.04 0.03 0.03
0.01 0.01 0.00 0.00 0.00 0.00 0.00 0.00 0.00 0.00 0.00 0.01 0.01 0.01 0.01 0.01 0.02 0.02 0.02 0.01 0.01 0.01 0.01 0.02 0.03 0.03 0.03 0.04 0.05 0.06 0.05 0.05 0.05 0.04 0.05 0.04 0.05 0.06 0.06 0.04 0.04 0.04 0.03
0.01 0.00 0.00 0.00 0.00 0.00 0.00 0.00 0.00 0.00 0.00 0.00 0.01 0.01 0.01 0.01 0.01 0.01 0.01 0.01 0.01 0.01 0.01 0.02 0.04 0.04 0.04 0.05 0.05 0.05 0.06 0.05 0.05 0.05 0.05 0.06 0.06 0.06 0.05 0.04 0.05 0.05 0.03
0.01 0.01 0.01 0.01 0.00 0.01 0.01 0.01 0.00 0.00 0.00 0.00 0.00 0.00 0.01 0.01 0.01 0.01 0.01 0.01 0.01 0.01 0.02 0.03 0.05 0.05 0.05 0.05 0.05 0.05 0.06 0.06 0.05 0.05 0.05 0.05 0.05 0.05 0.05 0.04 0.03 0.03 0.04
0.01 0.04 0.04 0.03 0.01 0.01 0.01 0.01 0.00 0.00 0.00 0.00 0.00 0.01 0.01 0.01 0.01 0.01 0.01 0.01 0.01 0.02 0.03 0.05 0.05 0.05 0.05 0.04 0.03 0.04 0.04 0.05 0.04 0.04 0.05 0.05 0.05 0.04 0.04 0.03 0.02 0.02 0.04
0.02 0.04 0.04 0.02 0.01 0.00 0.00 0.00 0.00 0.00 0.00 0.00 0.01 0.01 0.01 0.01 0.01 0.00 0.01 0.01 0.01 0.02 0.05 0.07 0.09 0.09 0.07 0.05 0.03 0.02 0.03 0.04 0.03 0.03 0.03 0.04 0.04 0.03 0.03 0.03 0.03 0.03 0.03
0.00 0.01 0.01 0.01 0.00 0.00 0.00 0.00 0.00 0.00 0.01 0.01 0.01 0.01 0.01 0.01 0.01 0.02 0.02 0.03 0.04 0.05 0.08 0.11 0.11 0.09 0.06 0.04 0.02 0.01 0.01 0.02 0.02 0.02 0.02 0.03 0.02 0.03 0.03 0.03 0.03 0.03 0.02
0.00 0.00 0.00 0.00 0.00 0.00 0.00 0.00 0.01 0.01 0.01 0.01 0.01 0.01 0.01 0.01 0.02 0.04 0.04 0.04 0.06 0.08 0.09 0.10 0.09 0.06 0.03 0.02 0.01 0.01 0.01 0.02 0.01 0.01 0.01 0.02 0.02 0.03 0.03 0.03 0.03 0.03 0.02
0.00 0.00 0.00 0.00 0.00 0.00 0.00 0.01 0.01 0.01 0.01 0.01 0.01 0.01 0.01 0.01 0.02 0.02 0.02 0.02 0.04 0.05 0.05 0.06 0.05 0.04 0.03 0.02 0.01 0.01 0.02 0.01 0.01 0.02 0.02 0.01 0.02 0.02 0.02 0.03 0.02 0.02 0.03
0.00 0.00 0.00 0.00 0.00 0.00 0.00 0.01 0.01 0.01 0.01 0.01 0.01 0.01 0.01 0.01 0.02 0.01 0.01 0.02 0.03 0.04 0.04 0.04 0.03 0.03 0.02 0.02 0.01 0.01 0.02 0.01 0.01 0.02 0.02 0.03 0.02 0.02 0.02 0.02 0.01 0.02 0.02
0.01 0.01 0.01 0.00 0.00 0.00 0.00 0.01 0.01 0.01 0.01 0.01 0.02 0.02 0.02 0.02 0.02 0.02 0.02 0.03 0.04 0.05 0.06 0.06 0.04 0.03 0.02 0.02 0.02 0.01 0.02 0.02 0.02 0.04 0.05 0.03 0.03 0.02 0.03 0.02 0.02 0.02 0.02
0.01 0.01 0.01 0.01 0.01 0.00 0.01 0.01 0.02 0.02 0.02 0.02 0.03 0.04 0.05 0.04 0.03 0.02 0.03 0.05 0.06 0.05 0.05 0.04 0.03 0.02 0.02 0.03 0.05 0.04 0.05 0.08 0.08 0.09 0.05 0.03 0.03 0.03 0.03 0.02 0.03 0.03 0.03
0.01 0.01 0.01 0.01 0.01 0.00 0.01 0.01 0.01 0.01 0.02 0.04 0.06 0.06 0.06 0.06 0.05 0.04 0.05 0.05 0.06 0.05 0.05 0.04 0.04 0.03 0.02 0.01 0.02 0.04 0.04 0.08 0.09 0.05 0.04 0.04 0.03 0.03 0.04 0.04 0.05 0.04 0.03
0.01 0.01 0.00 0.00 0.01 0.01 0.01 0.02 0.02 0.02 0.02 0.03 0.02 0.03 0.03 0.03 0.04 0.04 0.03 0.03 0.04 0.04 0.03 0.03 0.03 0.02 0.02 0.03 0.03 0.03 0.03 0.03 0.03 0.02 0.02 0.02 0.02 0.02 0.02 0.02 0.02 0.02 0.02
0.01 0.01 0.01 0.01 0.01 0.01 0.01 0.01 0.02 0.01 0.01 0.01 0.01 0.01 0.01 0.02 0.01 0.02 0.01 0.01 0.02 0.02 0.02 0.02 0.02 0.03 0.03 0.03 0.03 0.03 0.02 0.01 0.02 0.02 0.02 0.02 0.02 0.02 0.02 0.02 0.03 0.03 0.03
0.01 0.01 0.01 0.02 0.02 0.02 0.02 0.02 0.01 0.01 0.01 0.01 0.01 0.01 0.01 0.01 0.01 0.01 0.01 0.01 0.01 0.01 0.02 0.02 0.03 0.03 0.03 0.03 0.03 0.03 0.01 0.02 0.02 0.03 0.03 0.02 0.02 0.03 0.02 0.02 0.03 0.02 0.02
0.01 0.01 0.01 0.02 0.02 0.02 0.02 0.02 0.01 0.01 0.01 0.02 0.02 0.02 0.02 0.02 0.01 0.01 0.01 0.01 0.01 0.01 0.02 0.02 0.02 0.03 0.03 0.02 0.02 0.02 0.01 0.01 0.01 0.02 0.02 0.02 0.02 0.02 0.02 0.02 0.03 0.03 0.02
0.01 0.02 0.02 0.03 0.03 0.03 0.03 0.02 0.02 0.02 0.02 0.02 0.02 0.02 0.02 0.02 0.02 0.02 0.02 0.02 0.02 0.02 0.02 0.01 0.01 0.02 0.02 0.01 0.01 0.01 0.01 0.01 0.01 0.02 0.02 0.01 0.01 0.02 0.02 0.01 0.01 0.01 0.01
0.02 0.01 0.01 0.03 0.05 0.06 0.05 0.05 0.04 0.03 0.02 0.02 0.02 0.02 0.02 0.02 0.01 0.02 0.02 0.02 0.02 0.01 0.01 0.01 0.01 0.01 0.01 0.01 0.01 0.01 0.01 0.01 0.02 0.03 0.02 0.01 0.01 0.01 0.01 0.01 0.01 0.01 0.01
0.01 0.01 0.01 0.02 0.02 0.03 0.03 0.03 0.03 0.03 0.03 0.03 0.02 0.01 0.02 0.02 0.02 0.02 0.02 0.02 0.02 0.02 0.02 0.02 0.02 0.02 0.02 0.02 0.01 0.01 0.01 0.01 0.02 0.02 0.01 0.01 0.01 0.01 0.01 0.01 0.01 0.01 0.02
0.00 0.00 0.00 0.01 0.01 0.02 0.02 0.02 0.02 0.02 0.02 0.02 0.01 0.01 0.02 0.02 0.02 0.03 0.03 0.02 0.02 0.02 0.04 0.02 0.02 0.02 0.02 0.02 0.01 0.02 0.01 0.02 0.02 0.02 0.01 0.01 0.01 0.01 0.01 0.01 0.01 0.02 0.02
0.01 0.01 0.01 0.01 0.01 0.01 0.01 0.01 0.01 0.01 0.02 0.04 0.02 0.01 0.02 0.02 0.02 0.02 0.03 0.03 0.03 0.03 0.03 0.02 0.02 0.02 0.02 0.02 0.02 0.02 0.02 0.01 0.01 0.02 0.02 0.02 0.02 0.01 0.01 0.01 0.01 0.02 0.03
0.01 0.01 0.01 0.01 0.01 0.00 0.00 0.01 0.01 0.01 0.02 0.03 0.03 0.03 0.03 0.02 0.02 0.02 0.02 0.01 0.02 0.01 0.01 0.01 0.01 0.01 0.02 0.04 0.04 0.04 0.03 0.03 0.02 0.02 0.01 0.02 0.02 0.02 0.02 0.01 0.02 0.03 0.03
MSLP
1008.19 1008.01 1007.84 1007.69 1007.56 1007.48 1007.46 1007.53 1007.67 1007.88 1008.12 1008.33 1008.49 1008.55 1008.50 1008.36 1008.16 1007.92 1007.71 1007.53 1007.42 1007.36 1007.33 1007.30 1007.24 1007.14 1006.99 1006.79 1006.58 1006.37 1006.19 1006.03 1005.90 1005.78 1005.64 1005.47 1005.26 1005.01 1004.75 1004.52 1004.35 1004.28 1004.31
1007.83 1007.63 1007.46 1007.31 1007.18 1007.09 1007.06 1007.11 1007.23 1007.40 1007.60 1007.79 1007.94 1008.02 1008.01 1007.93 1007.80 1007.65 1007.52 1007.43 1007.38 1007.37 1007.37 1007.36 1007.31 1007.22 1007.07 1006.88 1006.68 1006.48 1006.30 1006.15 1006.01 1005.87 1005.71 1005.50 1005.25 1004.95 1004.65 1004.37 1004.16 1004.04 1004.04
1007.42 1007.20 1007.02 1006.87 1006.76 1006.67 1006.64 1006.67 1006.76 1006.90 1007.06 1007.23 1007.37 1007.46 1007.50 1007.49 1007.44 1007.38 1007.34 1007.32 1007.33 1007.36 1007.39 1007.39 1007.35 1007.26 1007.12 1006.95 1006.77 1006.59 1006.44 1006.30 1006.18 1006.04 1005.87 1005.65 1005.37 1005.05 1004.72 1004.40 1004.15 1003.98 1003.92
1006.98 1006.75 1006.58 1006.45 1006.35 1006.28 1006.25 1006.27 1006.33 1006.44 1006.58 1006.73 1006.87 1006.98 1007.06 1007.10 1007.13 1007.15 1007.18 1007.22 1007.28 1007.33 1007.37 1007.38 1007.34 1007.26 1007.14 1006.99 1006.84 1006.71 1006.59 1006.50 1006.40 1006.28 1006.12 1005.90 1005.62 1005.30 1004.94 1004.60 1004.31 1004.08 1003.94
1006.61 1006.38 1006.22 1006.11 1006.03 1005.99 1005.97 1005.99 1006.04 1006.12 1006.23 1006.36 1006.50 1006.62 1006.73 1006.83 1006.91 1006.98 1007.06 1007.14 1007.21 1007.27 1007.30 1007.30 1007.26 1007.18 1007.08 1006.97 1006.86 1006.78 1006.72 1006.66 1006.61 1006.52 1006.38 1006.18 1005.91 1005.59 1005.23 1004.88 1004.56 1004.28 1004.06
1006.40 1006.17 1006.02 1005.94 1005.90 1005.88 1005.88 1005.89 1005.92 1005.98 1006.07 1006.17 1006.29 1006.42 1006.55 1006.67 1006.78 1006.88 1006.97 1007.05 1007.11 1007.14 1007.15 1007.12 1007.06 1006.99 1006.91 1006.83 1006.77 1006.74 1006.72 1006.71 1006.69 1006.63 1006.52 1006.34 1006.09 1005.79 1005.46 1005.12 1004.79 1004.48 1004.20
1006.44 1006.21 1006.09 1006.04 1006.02 1006.02 1006.02 1006.03 1006.04 1006.07 1006.12 1006.19 1006.28 1006.39 1006.51 1006.62 1006.74 1006.83 1006.90 1006.95 1006.97 1006.96 1006.92 1006.85 1006.77 1006.69 1006.61 1006.56 1006.53 1006.53 1006.55 1006.56 1006.55 1006.51 1006.41 1006.25 1006.04 1005.78 1005.49 1005.19 1004.89 1004.58 1004.28
1006.78 1006.57 1006.46 1006.43 1006.42 1006.43 1006.42 1006.41 1006.39 1006.37 1006.37 1006.40 1006.45 1006.52 1006.60 1006.69 1006.78 1006.84 1006.87 1006.87 1006.83 1006.75 1006.66 1006.54 1006.42 1006.32 1006.23 1006.18 1006.16 1006.16 1006.17 1006.18 1006.15 1006.10 1005.99 1005.84 1005.66 1005.45 1005.23 1005.00 1004.77 1004.52 1004.24
1007.43 1007.23 1007.14 1007.11 1007.11 1007.10 1007.07 1007.02 1006.95 1006.88 1006.82 1006.79 1006.78 1006.80 1006.83 1006.88 1006.91 1006.92 1006.89 1006.83 1006.72 1006.58 1006.42 1006.26 1006.10 1005.96 1005.85 1005.77 1005.72 1005.69 1005.65 1005.60 1005.53 1005.42 1005.29 1005.13 1004.97 1004.81 1004.67 1004.54 1004.40 1004.25 1004.05
1008.35 1008.16 1008.07 1008.03 1008.01 1007.97 1007.91 1007.81 1007.69 1007.56 1007.44 1007.34 1007.26 1007.22 1007.19 1007.18 1007.15 1007.10 1007.02 1006.89 1006.72 1006.53 1006.31 1006.10 1005.89 1005.71 1005.56 1005.44 1005.33 1005.22 1005.11 1004.96 1004.79 1004.60 1004.40 1004.21 1004.06 1003.94 1003.87 1003.85 1003.83 1003.80 1003.71
1009.44 1009.26 1009.16 1009.10 1009.04 1008.97 1008.86 1008.71 1008.54 1008.35 1008.17 1008.01 1007.88 1007.77 1007.69 1007.61 1007.53 1007.42 1007.29 1007.11 1006.90 1006.65 1006.40 1006.15 1005.91 1005.69 1005.49 1005.30 1005.11 1004.91 1004.67 1004.40 1004.11 1003.80 1003.50 1003.25 1003.07 1002.97 1002.96 1003.03 1003.13 1003.22 1003.25
1010.58 1010.40 1010.28 1010.19 1010.09 1009.98 1009.83 1009.65 1009.44 1009.22 1008.99 1008.79 1008.61 1008.46 1008.32 1008.19 1008.06 1007.90 1007.72 1007.51 1007.26 1007.00 1006.72 1006.45 1006.18 1005.93 1005.68 1005.43 1005.15 1004.83 1004.46 1004.05 1003.61 1003.16 1002.75 1002.41 1002.17 1002.06 1002.07 1002.20 1002.38 1002.58 1002.72
1011.64 1011.46 1011.32 1011.19 1011.07 1010.92 1010.75 1010.56 1010.33 1010.10 1009.86 1009.64 1009.43 1009.24 1009.07 1008.90 1008.72 1008.53 1008.32 1008.08 1007.82 1007.54 1007.26 1006.98 1006.70 1006.42 1006.14 1005.82 1005.45 1005.03 1004.53 1003.98 1003.39 1002.80 1002.25 1001.80 1001.47 1001.31 1001.31 1001.45 1001.68 1001.94 1002.16
1012.54 1012.36 1012.20 1012.05 1011.91 1011.75 1011.59 1011.40 1011.19 1010.98 1010.75 1010.53 1010.32 1010.11 1009.91 1009.70 1009.50 1009.27 1009.03 1008.78 1008.51 1008.23 1007.95 1007.67 1007.39 1007.10 1006.78 1006.42 1005.98 1005.46 1004.85 1004.17 1003.44 1002.71 1002.03 1001.46 1001.03 1000.78 1000.72 1000.82 1001.04 1001.31 1001.57
1013.23 1013.06 1012.89 1012.74 1012.59 1012.46 1012.32 1012.17 1012.01 1011.83 1011.64 1011.44 1011.23 1011.02 1010.80 1010.57 1010.32 1010.07 1009.81 1009.54 1009.26 1008.98 1008.71 1008.44 1008.16 1007.86 1007.52 1007.11 1006.62 1006.03 1005.34 1004.55 1003.71 1002.86 1002.05 1001.35 1000.80 1000.44 1000.28 1000.31 1000.47 1000.71 1000.96
1013.73 1013.56 1013.41 1013.27 1013.15 1013.05 1012.96 1012.87 1012.77 1012.65 1012.50 1012.33 1012.14 1011.92 1011.68 1011.42 1011.15 1010.86 1010.58 1010.28 1010.00 1009.72 1009.44 1009.18 1008.90 1008.59 1008.23 1007.80 1007.27 1006.62 1005.86 1005.00 1004.08 1003.13 1002.21 1001.39 1000.72 1000.23 999.95 999.87 999.94 1000.11 1000.32
1014.07 1013.94 1013.81 1013.71 1013.63 1013.59 1013.56 1013.53 1013.49 1013.43 1013.33 1013.19 1013.01 1012.78 1012.52 1012.23 1011.93 1011.61 1011.29 1010.97 1010.67 1010.38 1010.10 1009.83 1009.54 1009.22 1008.84 1008.39 1007.83 1007.15 1006.34 1005.43 1004.44 1003.42 1002.41 1001.49 1000.70 1000.09 999.67 999.46 999.41 999.50 999.65
1014.35 1014.26 1014.18 1014.13 1014.11 1014.12 1014.14 1014.18 1014.20 1014.18 1014.11 1013.98 1013.80 1013.56 1013.28 1012.96 1012.62 1012.27 1011.92 1011.59 1011.27 1010.96 1010.67 1010.38 1010.08 1009.74 1009.34 1008.86 1008.27 1007.56 1006.72 1005.77 1004.74 1003.66 1002.59 1001.58 1000.69 999.95 999.41 999.07 998.90 998.89 998.98
1014.64 1014.61 1014.58 1014.58 1014.62 1014.68 1014.76 1014.83 1014.88 1014.88 1014.83 1014.70 1014.51 1014.25 1013.94 1013.60 1013.23 1012.86 1012.49 1012.14 1011.81 1011.50 1011.19 1010.88 1010.56 1010.19 1009.76 1009.25 1008.62 1007.88 1007.02 1006.04 1004.98 1003.86 1002.74 1001.66 1000.69 999.85 999.19 998.72 998.44 998.32 998.34
1015.00 1015.03 1015.06 1015.11 1015.19 1015.28 1015.39 1015.48 1015.54 1015.54 1015.47 1015.33 1015.12 1014.84 1014.51 1014.15 1013.77 1013.39 1013.03 1012.68 1012.35 1012.03 1011.72 1011.39 1011.04 1010.65 1010.18 1009.62 1008.97 1008.19 1007.30 1006.30 1005.22 1004.08 1002.92 1001.79 1000.75 999.82 999.06 998.48 998.09 997.87 997.80
1015.43 1015.52 1015.61 1015.70 1015.81 1015.92 1016.03 1016.12 1016.16 1016.13 1016.04 1015.87 1015.63 1015.33 1014.99 1014.63 1014.26 1013.90 1013.55 1013.23 1012.92 1012.61 1012.30 1011.97 1011.59 1011.16 1010.66 1010.06 1009.37 1008.56 1007.65 1006.63 1005.53 1004.38 1003.20 1002.05 1000.95 999.97 999.12 998.44 997.94 997.62 997.46
1015.92 1016.07 1016.20 1016.32 1016.45 1016.56 1016.66 1016.71 1016.72 1016.66 1016.52 1016.32 1016.06 1015.74 1015.41 1015.06 1014.72 1014.39 1014.09 1013.80 1013.52 1013.24 1012.95 1012.61 1012.22 1011.77 1011.23 1010.60 1009.87 1009.04 1008.11 1007.09 1005.99 1004.84 1003.66 1002.50 1001.38 1000.34 999.43 998.66 998.06 997.63 997.37
1016.42 1016.62 1016.79 1016.93 1017.06 1017.16 1017.23 1017.25 1017.21 1017.11 1016.93 1016.70 1016.41 1016.10 1015.77 1015.45 1015.14 1014.87 1014.61 1014.38 1014.15 1013.90 1013.63 1013.30 1012.91 1012.43 1011.87 1011.22 1010.47 1009.62 1008.69 1007.68 1006.60 1005.47 1004.32 1003.17 1002.05 1000.99 1000.03 999.19 998.49 997.94 997.55
1016.90 1017.13 1017.33 1017.49 1017.62 1017.70 1017.74 1017.73 1017.65 1017.50 1017.29 1017.02 1016.72 1016.41 1016.10 1015.80 1015.54 1015.31 1015.11 1014.92 1014.74 1014.53 1014.27 1013.96 1013.56 1013.08 1012.51 1011.85 1011.09 1010.26 1009.34 1008.36 1007.33 1006.25 1005.15 1004.05 1002.95 1001.90 1000.91 1000.00 999.21 998.54 998.01
1017.31 1017.57 1017.79 1017.97 1018.10 1018.18 1018.19 1018.15 1018.03 1017.85 1017.61 1017.33 1017.02 1016.70 1016.41 1016.14 1015.90 1015.71 1015.55 1015.40 1015.24 1015.06 1014.82 1014.51 1014.12 1013.64 1013.06 1012.40 1011.66 1010.86 1009.99 1009.07 1008.10 1007.11 1006.09 1005.05 1004.01 1002.98 1001.98 1001.03 1000.16 999.37 998.69
1017.64 1017.93 1018.18 1018.38 1018.52 1018.59 1018.60 1018.54 1018.41 1018.20 1017.94 1017.64 1017.32 1017.01 1016.71 1016.45 1016.23 1016.05 1015.90 1015.77 1015.62 1015.44 1015.20 1014.90 1014.50 1014.02 1013.46 1012.82 1012.11 1011.35 1010.55 1009.71 1008.84 1007.95 1007.03 1006.09 1005.13 1004.15 1003.17 1002.19 1001.24 1000.34 999.50
Thickness
5813 5812 5810 5808 5805 5801 5797 5794 5791 5790 5789 5787 5786 5783 5782 5782 5780 5779 5776 5774 5773 5773 5772 5772 5770 5769 5768 5765 5764 5763 5762 5762 5763 5762 5760 5762 5763 5761 5759 5759 5758 5756 5755
5810 5809 5808 5807 5804 5800 5797 5794 5792 5791 5789 5787 5785 5784 5782 5781 5780 5778 5775 5773 5772 5771 5772 5769 5769 5768 5765 5763 5761 5760 5760 5761 5761 5758 5756 5753 5753 5755 5759 5756 5754 5754 5753
5810 5808 5806 5805 5803 5800 5798 5797 5793 5791 5789 5788 5787 5784 5781 5780 5779 5776 5774 5773 5771 5770 5769 5767 5767 5765 5764 5761 5759 5758 5756 5756 5758 5758 5754 5748 5745 5749 5753 5752 5751 5749 5749
5813 5810 5807 5804 5803 5802 5801 5797 5795 5792 5790 5788 5787 5783 5779 5777 5776 5775 5774 5772 5770 5769 5767 5766 5764 5762 5762 5759 5758 5757 5756 5753 5753 5754 5752 5751 5748 5743 5743 5747 5749 5747 5745
5814 5811 5809 5806 5805 5804 5802 5799 5795 5792 5790 5788 5786 5782 5780 5778 5778 5775 5772 5770 5769 5767 5765 5764 5762 5760 5759 5757 5755 5753 5753 5753 5751 5750 5749 5748 5746 5746 5741 5738 5740 5743 5744
5815 5812 5811 5808 5805 5805 5802 5799 5794 5790 5789 5787 5785 5781 5778 5776 5774 5771 5770 5769 5768 5766 5764 5762 5760 5758 5757 5754 5752 5751 5750 5748 5747 5747 5747 5745 5743 5741 5740 5737 5735 5736 5739
5815 5812 5808 5806 5804 5802 5800 5798 5793 5789 5788 5786 5784 5781 5778 5775 5772 5770 5769 5767 5766 5764 5761 5760 5756 5755 5753 5751 5749 5748 5746 5745 5743 5742 5743 5742 5741 5740 5738 5735 5734 5732 5735
5815 5811 5808 5806 5804 5802 5799 5796 5792 5789 5787 5785 5783 5781 5778 5776 5775 5771 5769 5766 5764 5762 5758 5756 5753 5751 5749 5748 5745 5745 5743 5741 5739 5739 5737 5737 5737 5736 5734 5731 5729 5727 5728
5812 5809 5808 5806 5803 5802 5799 5796 5792 5788 5786 5784 5781 5779 5776 5774 5772 5769 5766 5765 5762 5760 5756 5753 5750 5748 5745 5743 5741 5740 5737 5736 5735 5735 5733 5733 5732 5732 5730 5729 5726 5721 5718
5810 5808 5806 5804 5802 5802 5800 5796 5792 5787 5785 5782 5780 5778 5775 5772 5769 5766 5763 5760 5758 5755 5752 5749 5747 5744 5741 5739 5737 5735 5733 5731 5730 5728 5726 5725 5728 5727 5726 5724 5722 5719 5715
5808 5807 5805 5803 5801 5800 5798 5793 5790 5787 5783 5781 5778 5775 5772 5769 5766 5762 5759 5756 5753 5750 5747 5745 5741 5738 5736 5734 5731 5730 5728 5726 5724 5723 5722 5720 5719 5720 5720 5719 5717 5715 5712
5807 5806 5803 5801 5798 5795 5793 5790 5787 5784 5781 5778 5775 5772 5768 5765 5761 5758 5755 5752 5749 5746 5743 5740 5736 5733 5731 5728 5725 5723 5722 5719 5717 5716 5715 5714 5714 5711 5711 5711 5710 5708 5706
5802 5801 5798 5795 5792 5791 5788 5786 5783 5780 5779 5776 5771 5767 5763 5759 5756 5753 5750 5747 5744 5741 5738 5735 5731 5728 5726 5723 5720 5717 5716 5714 5712 5710 5708 5708 5706 5704 5704 5703 5703 5702 5701
5795 5793 5790 5788 5787 5785 5783 5781 5778 5776 5773 5770 5766 5761 5758 5754 5751 5748 5745 5742 5738 5735 5732 5729 5726 5723 5721 5718 5715 5712 5710 5707 5706 5704 5703 5701 5700 5698 5696 5696 5694 5693 5692
5789 5787 5784 5783 5782 5779 5776 5774 5771 5769 5766 5762 5759 5755 5752 5749 5745 5742 5739 5735 5732 5729 5726 5723 5720 5718 5716 5713 5709 5706 5704 5701 5699 5698 5697 5695 5693 5690 5688 5689 5687 5685 5684
5784 5782 5780 5778 5775 5773 5770 5767 5764 5762 5759 5755 5752 5749 5745 5742 5739 5735 5732 5728 5725 5722 5719 5716 5713 5711 5710 5704 5699 5697 5698 5696 5693 5691 5690 5690 5687 5684 5680 5677 5675 5674 5674
5779 5777 5775 5772 5769 5768 5764 5761 5758 5756 5752 5748 5745 5741 5738 5735 5731 5728 5725 5721 5718 5715 5712 5709 5707 5704 5699 5694 5691 5688 5689 5689 5687 5685 5684 5684 5684 5679 5677 5673 5669 5668 5665
5774 5772 5770 5768 5766 5763 5759 5755 5752 5749 5745 5741 5738 5734 5731 5727 5723 5719 5716 5713 5712 5709 5705 5702 5700 5696 5692 5687 5683 5681 5682 5682 5680 5679 5677 5675 5674 5673 5669 5668 5666 5665 5664
5770 5767 5766 5763 5759 5756 5752 5748 5745 5741 5737 5733 5730 5727 5724 5719 5716 5712 5709 5707 5704 5701 5698 5696 5693 5689 5685 5680 5676 5673 5676 5675 5674 5672 5670 5669 5666 5662 5659 5659 5659 5658 5658
5765 5761 5760 5757 5752 5749 5746 5741 5738 5733 5728 5725 5721 5719 5716 5713 5710 5706 5702 5700 5697 5695 5692 5689 5686 5682 5678 5673 5669 5666 5670 5669 5668 5666 5664 5660 5657 5653 5650 5651 5651 5650 5651
5758 5755 5752 5748 5744 5741 5738 5733 5730 5724 5721 5718 5714 5712 5709 5706 5704 5699 5696 5693 5690 5688 5685 5682 5679 5676 5672 5667 5662 5659 5661 5660 5660 5659 5658 5656 5649 5645 5643 5642 5643 5642 5641
5750 5748 5743 5739 5736 5734 5729 5725 5720 5717 5713 5710 5707 5704 5702 5700 5698 5692 5688 5685 5682 5680 5677 5674 5672 5670 5666 5661 5657 5652 5650 5649 5650 5650 5650 5648 5641 5638 5636 5636 5635 5634 5633
5743 5741 5737 5733 5729 5725 5722 5717 5712 5709 5706 5702 5699 5696 5694 5691 5689 5685 5681 5678 5675 5674 5671 5668 5666 5663 5661 5656 5651 5647 5644 5642 5642 5643 5639 5636 5633 5632 5632 5630 5629 5628 5630
5735 5733 5729 5725 5720 5717 5714 5710 5705 5702 5699 5695 5691 5689 5686 5683 5679 5676 5674 5671 5667 5664 5662 5660 5658 5656 5653 5650 5646 5643 5641 5637 5636 5636 5633 5629 5627 5627 5626 5626 5626 5625 5624
5728 5725 5721 5716 5712 5708 5705 5702 5698 5694 5690 5687 5684 5681 5678 5675 5671 5668 5664 5661 5657 5653 5650 5650 5648 5646 5644 5637 5630 5630 5631 5630 5629 5627 5627 5627 5626 5625 5624 5623 5622 5620 5618
5720 5716 5712 5708 5704 5700 5696 5693 5690 5686 5683 5680 5677 5675 5672 5668 5665 5661 5657 5650 5647 5642 5638 5635 5633 5633 5629 5624 5622 5620 5618 5617 5615 5617 5621 5620 5619 5618 5617 5616 5615 5614 5613